Regional Weather Roundup
Issued by NWS Little Rock, AR

Home | Current Version | Previous Version | Graphics & Text | Print | Product List | Glossary On
Versions: 1 2 3 4 5 6 7 8 9 10 11 12 13 14 15 16 17 18 19 20 21 22 23 24 25 26 27 28 29 30 31 32
000
ASUS44 KLZK 260005
RWRLZK

WEATHER ROUNDUP FOR ARKANSAS
NATIONAL WEATHER SERVICE LITTLE ROCK AR
700 PM CDT SUN JUN 25 2017

NOTE: "FAIR" INDICATES FEW OR NO CLOUDS BELOW 12,000 FEET WITH NO
SIGNIFICANT WEATHER AND/OR OBSTRUCTIONS TO VISIBILITY.

ARZ001-003-010-029-260100-
NORTHWEST ARKANSAS

CITY           SKY/WX    TMP DP  RH WIND       PRES   REMARKS
FAYETTEVILLE   SUNNY     81  53  37 NE3       30.21S
6HR MIN TEMP:  79; 6HR MAX TEMP:  83;

FORT SMITH     SUNNY     85  57  38 E8        30.16F
6HR MIN TEMP:  84; 6HR MAX TEMP:  88;

HARRISON       SUNNY     80  53  39 N6        30.22F
6HR MIN TEMP:  79; 6HR MAX TEMP:  83;

BENTONVILLE    MOSUNNY   81  54  39 NE7       30.23S
6HR MIN TEMP:  81; 6HR MAX TEMP:  84;

ROGERS         SUNNY     80  56  43 NE8       30.22F
6HR MIN TEMP:  80; 6HR MAX TEMP:  85;

SILOAM SPGS    SUNNY     82  52  34 CALM      30.20S
6HR MIN TEMP:  81; 6HR MAX TEMP:  84;

HIGHFILL       SUNNY     84  55  36 N7        30.21F
6HR MIN TEMP:  82; 6HR MAX TEMP:  87;

SPRINGDALE     MOSUNNY   81  52  36 E5        30.23S
$$

ARZ004-005-016-260100-
NORTH CENTRAL ARKANSAS

CITY           SKY/WX    TMP DP  RH WIND       PRES   REMARKS
BATESVILLE     SUNNY     82  55  39 W3        30.18S
6HR MIN TEMP:  82; 6HR MAX TEMP:  86;

FLIPPIN        SUNNY    N/A N/A N/A W6        30.17S
MTN HOME       SUNNY     80  53  39 CALM      30.19F
6HR MIN TEMP:  80; 6HR MAX TEMP:  84;

$$

ARZ040-041-260100-
WEST CENTRAL ARKANSAS

CITY           SKY/WX    TMP DP  RH WIND       PRES   REMARKS
MENA           SUNNY     86  54  32 E6        30.18S
$$

ARZ009-017-025-026-028-260100-
NORTHEAST ARKANSAS

CITY           SKY/WX    TMP DP  RH WIND       PRES   REMARKS
JONESBORO      SUNNY     85  51  31 N3        30.17S
6HR MIN TEMP:  83; 6HR MAX TEMP:  87;

WALNUT RIDGE   SUNNY     82  55  39 CALM      30.17S
6HR MIN TEMP:  81; 6HR MAX TEMP:  84;

BLYTHEVILLE    SUNNY     83  54  36 W3        30.17S
6HR MIN TEMP:  82; 6HR MAX TEMP:  85;

$$

ARZ022-023-033-042-044-260100-
CENTRAL ARKANSAS

CITY           SKY/WX    TMP DP  RH WIND       PRES   REMARKS
LITTLE ROCK    MOSUNNY   81  54  39 E7        30.18R
6HR MIN TEMP:  81; 6HR MAX TEMP:  85;

N LITTLE ROCK    N/A     83  59  44 E5        30.18R
6HR MIN TEMP:  81; 6HR MAX TEMP:  85;

JACKSONVILLE   SUNNY     84  57  39 CALM      30.18R
6HR MIN TEMP:  82; 6HR MAX TEMP:  85;

CONWAY           N/A     84  55  37 SE3       30.16S
SEARCY         SUNNY     84  61  45 MISG        N/A
6HR MIN TEMP:  82; 6HR MAX TEMP:  87;

HOT SPRINGS    SUNNY     83  57  41 SE7       30.17S
6HR MIN TEMP:  83; 6HR MAX TEMP:  87;

RUSSELLVILLE   SUNNY     83  54  36 SE3       30.17S
6HR MIN TEMP:  83; 6HR MAX TEMP:  85;

CLINTON        FAIR      82  59  44 CALM      30.18S
$$

ARZ036-260100-
EAST ARKANSAS

CITY           SKY/WX    TMP DP  RH WIND       PRES   REMARKS
WEST MEMPHIS   SUNNY     82  55  39 N5        30.16R
6HR MIN TEMP:  81; 6HR MAX TEMP:  85;

$$

ARZ050-053-066-070-073-260100-
SOUTHWEST ARKANSAS

CITY           SKY/WX    TMP DP  RH WIND       PRES   REMARKS
CAMDEN         SUNNY     82  57  42 E6        30.16R
TEXARKANA      SUNNY     83  60  45 E8        30.15S
6HR MIN TEMP:  83; 6HR MAX TEMP:  86;

EL DORADO      SUNNY     82  61  48 E6        30.16S
6HR MIN TEMP:  81; 6HR MAX TEMP:  84;

DE QUEEN       SUNNY     84  59  42 SE7       30.13F
6HR MIN TEMP:  83; 6HR MAX TEMP:  86;

$$

ARZ056-057-069-260100-
SOUTHEAST ARKANSAS

CITY           SKY/WX    TMP DP  RH WIND       PRES   REMARKS
PINE BLUFF     SUNNY     81  61  50 NE3       30.17S
6HR MIN TEMP:  81; 6HR MAX TEMP:  84;

STUTTGART      SUNNY    N/A N/A N/A N6        30.18S
MONTICELLO     SUNNY     82  62  50 NE3       30.16F
6HR MIN TEMP:  81; 6HR MAX TEMP:  84;


$$






USA.gov is the U.S. government's official web portal to all federal, state and local government web resources and services.